QPF
0.00 0.00 0.00 0.00 0.00 0.00 0.00 0.00 0.00 0.00 0.00 0.00 0.00 0.00 0.00 0.00 0.00 0.00 0.00 0.00 0.00 0.00 0.00 0.00 0.01 0.00 0.00 0.00 0.00 0.00 0.00 0.00 0.00 0.00 0.00 0.00 0.00 0.00 0.00 0.00 0.00 0.00 0.00 0.00 0.00 0.00 0.00 0.00 0.00
0.00 0.00 0.00 0.00 0.00 0.00 0.00 0.00 0.00 0.00 0.00 0.00 0.00 0.00 0.00 0.00 0.00 0.00 0.00 0.00 0.00 0.00 0.00 0.00 0.00 0.01 0.00 0.00 0.00 0.00 0.00 0.00 0.00 0.00 0.00 0.00 0.00 0.00 0.00 0.00 0.00 0.00 0.00 0.00 0.00 0.00 0.00 0.00 0.00
0.00 0.00 0.00 0.00 0.00 0.00 0.00 0.00 0.00 0.00 0.00 0.00 0.00 0.00 0.00 0.00 0.00 0.00 0.00 0.00 0.00 0.00 0.00 0.00 0.00 0.01 0.01 0.01 0.00 0.00 0.00 0.00 0.00 0.00 0.00 0.00 0.00 0.00 0.00 0.00 0.00 0.00 0.00 0.00 0.00 0.00 0.00 0.00 0.00
0.00 0.00 0.00 0.00 0.00 0.00 0.00 0.00 0.00 0.00 0.00 0.00 0.00 0.00 0.00 0.00 0.00 0.00 0.00 0.00 0.00 0.00 0.00 0.00 0.00 0.01 0.01 0.01 0.01 0.00 0.00 0.00 0.00 0.00 0.00 0.00 0.00 0.00 0.00 0.00 0.00 0.00 0.00 0.00 0.00 0.00 0.00 0.00 0.00
0.00 0.00 0.00 0.00 0.00 0.00 0.00 0.00 0.00 0.00 0.00 0.00 0.00 0.00 0.00 0.00 0.00 0.00 0.00 0.00 0.00 0.00 0.00 0.00 0.01 0.01 0.01 0.01 0.01 0.00 0.00 0.00 0.00 0.00 0.00 0.00 0.00 0.00 0.00 0.00 0.00 0.00 0.00 0.00 0.00 0.00 0.00 0.00 0.00
0.00 0.00 0.00 0.00 0.00 0.00 0.00 0.00 0.00 0.00 0.00 0.00 0.00 0.00 0.00 0.00 0.00 0.00 0.00 0.00 0.00 0.00 0.00 0.00 0.01 0.01 0.01 0.01 0.01 0.01 0.00 0.00 0.00 0.00 0.00 0.00 0.00 0.00 0.00 0.00 0.00 0.00 0.00 0.00 0.00 0.00 0.00 0.00 0.00
0.00 0.00 0.00 0.00 0.00 0.00 0.00 0.00 0.00 0.00 0.00 0.00 0.00 0.00 0.00 0.00 0.00 0.00 0.00 0.00 0.00 0.00 0.00 0.00 0.00 0.01 0.01 0.01 0.01 0.01 0.01 0.00 0.00 0.00 0.00 0.00 0.00 0.00 0.00 0.00 0.00 0.00 0.00 0.00 0.00 0.00 0.00 0.00 0.00
0.00 0.00 0.00 0.00 0.00 0.00 0.00 0.00 0.00 0.00 0.00 0.00 0.00 0.00 0.00 0.00 0.00 0.00 0.00 0.00 0.00 0.00 0.00 0.00 0.00 0.00 0.01 0.01 0.01 0.01 0.01 0.01 0.01 0.00 0.00 0.00 0.00 0.00 0.00 0.00 0.00 0.00 0.00 0.00 0.00 0.00 0.00 0.00 0.00
0.00 0.00 0.00 0.00 0.00 0.00 0.00 0.00 0.00 0.00 0.00 0.00 0.00 0.00 0.00 0.00 0.00 0.00 0.00 0.00 0.00 0.00 0.00 0.00 0.00 0.00 0.00 0.00 0.01 0.01 0.01 0.01 0.00 0.00 0.00 0.00 0.00 0.00 0.00 0.00 0.00 0.00 0.00 0.00 0.00 0.00 0.00 0.00 0.00
0.00 0.00 0.00 0.00 0.00 0.00 0.00 0.00 0.00 0.00 0.00 0.00 0.00 0.00 0.00 0.00 0.00 0.00 0.00 0.00 0.00 0.00 0.00 0.00 0.00 0.00 0.00 0.00 0.00 0.00 0.00 0.00 0.00 0.00 0.00 0.00 0.00 0.00 0.00 0.00 0.00 0.00 0.00 0.00 0.00 0.00 0.00 0.00 0.00
0.00 0.00 0.00 0.00 0.00 0.00 0.00 0.00 0.00 0.00 0.00 0.00 0.00 0.00 0.00 0.00 0.00 0.00 0.00 0.00 0.00 0.00 0.00 0.00 0.00 0.00 0.00 0.00 0.00 0.00 0.00 0.00 0.00 0.00 0.00 0.00 0.00 0.00 0.00 0.00 0.00 0.00 0.00 0.00 0.00 0.00 0.00 0.00 0.00
0.00 0.00 0.00 0.00 0.00 0.00 0.00 0.00 0.00 0.00 0.00 0.00 0.00 0.00 0.00 0.00 0.00 0.00 0.00 0.00 0.00 0.00 0.00 0.00 0.00 0.00 0.00 0.00 0.00 0.00 0.00 0.00 0.00 0.00 0.00 0.00 0.00 0.00 0.00 0.00 0.00 0.00 0.00 0.00 0.00 0.00 0.00 0.00 0.00
0.00 0.00 0.00 0.00 0.00 0.00 0.00 0.00 0.00 0.00 0.00 0.00 0.00 0.00 0.00 0.00 0.00 0.00 0.00 0.00 0.00 0.00 0.00 0.00 0.00 0.00 0.00 0.00 0.00 0.00 0.00 0.00 0.00 0.00 0.00 0.00 0.00 0.00 0.00 0.00 0.00 0.00 0.00 0.00 0.00 0.00 0.00 0.00 0.00
0.00 0.00 0.00 0.00 0.00 0.00 0.00 0.00 0.00 0.00 0.00 0.00 0.00 0.00 0.00 0.00 0.00 0.00 0.00 0.00 0.00 0.00 0.00 0.00 0.00 0.00 0.00 0.00 0.00 0.00 0.00 0.00 0.00 0.00 0.00 0.00 0.00 0.00 0.00 0.00 0.00 0.00 0.00 0.00 0.00 0.00 0.00 0.00 0.00
0.00 0.00 0.00 0.00 0.00 0.00 0.00 0.00 0.00 0.00 0.00 0.00 0.00 0.00 0.00 0.00 0.00 0.00 0.00 0.00 0.00 0.00 0.00 0.00 0.00 0.00 0.00 0.00 0.00 0.00 0.00 0.00 0.00 0.00 0.00 0.00 0.00 0.00 0.00 0.00 0.00 0.00 0.00 0.00 0.00 0.00 0.00 0.00 0.00
0.00 0.00 0.00 0.00 0.00 0.00 0.00 0.00 0.00 0.00 0.00 0.00 0.00 0.00 0.00 0.00 0.00 0.00 0.00 0.00 0.00 0.00 0.00 0.00 0.00 0.00 0.00 0.00 0.00 0.00 0.00 0.00 0.00 0.00 0.00 0.00 0.00 0.00 0.00 0.00 0.00 0.00 0.00 0.00 0.00 0.00 0.00 0.00 0.00
0.00 0.00 0.00 0.00 0.00 0.00 0.00 0.00 0.00 0.00 0.00 0.00 0.00 0.00 0.00 0.00 0.00 0.00 0.00 0.00 0.00 0.00 0.00 0.00 0.00 0.00 0.00 0.00 0.00 0.00 0.00 0.00 0.00 0.00 0.00 0.00 0.00 0.00 0.00 0.00 0.00 0.00 0.00 0.00 0.00 0.00 0.00 0.00 0.00
0.00 0.00 0.00 0.00 0.00 0.00 0.00 0.00 0.00 0.00 0.00 0.00 0.00 0.00 0.00 0.00 0.00 0.00 0.00 0.00 0.00 0.00 0.00 0.00 0.00 0.00 0.00 0.00 0.00 0.00 0.00 0.00 0.00 0.00 0.00 0.00 0.00 0.00 0.00 0.00 0.00 0.00 0.00 0.00 0.00 0.00 0.00 0.00 0.00
0.00 0.00 0.00 0.00 0.00 0.00 0.00 0.00 0.00 0.00 0.00 0.00 0.00 0.00 0.00 0.00 0.00 0.00 0.00 0.00 0.00 0.00 0.00 0.00 0.00 0.00 0.00 0.00 0.00 0.00 0.00 0.00 0.00 0.00 0.00 0.00 0.00 0.00 0.00 0.00 0.00 0.00 0.00 0.00 0.00 0.00 0.00 0.00 0.00
0.00 0.00 0.00 0.00 0.00 0.00 0.00 0.00 0.00 0.00 0.00 0.00 0.00 0.00 0.00 0.00 0.00 0.00 0.00 0.00 0.00 0.00 0.00 0.00 0.00 0.00 0.00 0.00 0.00 0.00 0.00 0.00 0.00 0.00 0.00 0.00 0.00 0.00 0.00 0.00 0.00 0.00 0.00 0.00 0.00 0.00 0.00 0.00 0.00
0.00 0.00 0.00 0.00 0.00 0.00 0.00 0.00 0.00 0.00 0.00 0.00 0.00 0.00 0.00 0.00 0.00 0.00 0.00 0.00 0.00 0.00 0.00 0.00 0.00 0.00 0.00 0.00 0.00 0.00 0.00 0.00 0.00 0.00 0.00 0.00 0.00 0.00 0.00 0.00 0.00 0.00 0.00 0.00 0.00 0.00 0.00 0.00 0.00
0.00 0.00 0.00 0.00 0.00 0.00 0.00 0.00 0.00 0.00 0.00 0.00 0.00 0.00 0.00 0.00 0.00 0.00 0.00 0.00 0.00 0.00 0.00 0.00 0.00 0.00 0.00 0.00 0.00 0.00 0.00 0.00 0.00 0.00 0.00 0.00 0.00 0.00 0.00 0.00 0.00 0.00 0.00 0.00 0.00 0.00 0.00 0.00 0.00
0.00 0.00 0.00 0.00 0.00 0.00 0.00 0.00 0.00 0.00 0.00 0.00 0.00 0.00 0.00 0.00 0.00 0.00 0.00 0.00 0.00 0.00 0.00 0.00 0.00 0.00 0.00 0.00 0.00 0.00 0.00 0.00 0.00 0.00 0.00 0.00 0.00 0.00 0.00 0.00 0.00 0.00 0.00 0.00 0.00 0.00 0.00 0.00 0.00
0.00 0.00 0.00 0.00 0.00 0.00 0.00 0.00 0.00 0.00 0.00 0.00 0.00 0.00 0.00 0.00 0.00 0.00 0.00 0.00 0.00 0.00 0.00 0.00 0.00 0.00 0.00 0.00 0.00 0.00 0.00 0.00 0.00 0.00 0.00 0.00 0.00 0.00 0.00 0.00 0.00 0.00 0.00 0.00 0.00 0.00 0.00 0.00 0.00
0.00 0.00 0.00 0.00 0.00 0.00 0.00 0.00 0.00 0.00 0.00 0.00 0.00 0.00 0.00 0.00 0.00 0.00 0.00 0.00 0.00 0.00 0.00 0.00 0.00 0.00 0.00 0.00 0.00 0.00 0.00 0.00 0.00 0.00 0.00 0.00 0.00 0.00 0.00 0.00 0.00 0.00 0.00 0.00 0.00 0.00 0.00 0.00 0.00
0.00 0.00 0.00 0.00 0.00 0.00 0.00 0.00 0.00 0.00 0.00 0.00 0.00 0.00 0.00 0.00 0.00 0.00 0.00 0.00 0.00 0.00 0.00 0.00 0.00 0.00 0.00 0.00 0.00 0.00 0.00 0.00 0.00 0.00 0.00 0.00 0.00 0.00 0.00 0.00 0.00 0.00 0.00 0.00 0.00 0.00 0.00 0.00 0.00
0.00 0.00 0.00 0.00 0.00 0.00 0.00 0.00 0.00 0.00 0.00 0.00 0.00 0.00 0.00 0.00 0.00 0.00 0.00 0.00 0.00 0.00 0.00 0.00 0.00 0.00 0.00 0.00 0.00 0.00 0.00 0.00 0.00 0.00 0.00 0.00 0.00 0.00 0.00 0.00 0.00 0.00 0.00 0.00 0.00 0.00 0.00 0.00 0.00
0.00 0.00 0.00 0.00 0.00 0.00 0.00 0.00 0.00 0.00 0.00 0.00 0.00 0.00 0.00 0.00 0.00 0.00 0.00 0.00 0.00 0.00 0.00 0.00 0.00 0.00 0.00 0.00 0.00 0.00 0.00 0.00 0.00 0.00 0.00 0.00 0.00 0.00 0.00 0.00 0.00 0.00 0.00 0.00 0.00 0.00 0.00 0.00 0.00
0.00 0.00 0.00 0.00 0.00 0.00 0.00 0.00 0.00 0.00 0.00 0.00 0.00 0.00 0.00 0.00 0.00 0.00 0.00 0.00 0.00 0.00 0.00 0.00 0.00 0.00 0.00 0.00 0.00 0.00 0.00 0.00 0.00 0.00 0.00 0.00 0.00 0.00 0.00 0.00 0.00 0.00 0.00 0.00 0.00 0.00 0.00 0.00 0.00
0.00 0.00 0.00 0.00 0.00 0.00 0.00 0.00 0.00 0.00 0.00 0.00 0.00 0.00 0.00 0.00 0.00 0.00 0.00 0.00 0.00 0.00 0.00 0.00 0.00 0.00 0.00 0.00 0.00 0.00 0.00 0.00 0.00 0.00 0.00 0.00 0.00 0.00 0.00 0.00 0.00 0.00 0.00 0.00 0.00 0.00 0.00 0.00 0.00
MSLP
1014.61 1015.47 1016.55 1017.70 1018.78 1019.65 1020.23 1020.49 1020.45 1020.18 1019.79 1019.38 1019.03 1018.77 1018.60 1018.50 1018.41 1018.29 1018.13 1017.94 1017.75 1017.63 1017.63 1017.79 1018.12 1018.61 1019.20 1019.82 1020.42 1020.94 1021.36 1021.69 1021.94 1022.16 1022.38 1022.63 1022.92 1023.22 1023.52 1023.80 1024.01 1024.17 1024.25 1024.29 1024.29 1024.29 1024.30 1024.33 1024.39
1014.98 1016.02 1017.21 1018.40 1019.43 1020.17 1020.55 1020.56 1020.26 1019.74 1019.14 1018.57 1018.11 1017.80 1017.64 1017.57 1017.54 1017.51 1017.43 1017.33 1017.23 1017.19 1017.27 1017.50 1017.90 1018.44 1019.07 1019.74 1020.37 1020.93 1021.40 1021.78 1022.08 1022.35 1022.62 1022.91 1023.21 1023.52 1023.82 1024.09 1024.29 1024.44 1024.53 1024.57 1024.60 1024.63 1024.67 1024.73 1024.81
1015.48 1016.65 1017.88 1019.03 1019.93 1020.49 1020.65 1020.42 1019.89 1019.18 1018.43 1017.77 1017.27 1016.96 1016.83 1016.82 1016.86 1016.90 1016.91 1016.89 1016.88 1016.92 1017.06 1017.36 1017.80 1018.38 1019.04 1019.72 1020.36 1020.94 1021.42 1021.82 1022.16 1022.46 1022.75 1023.06 1023.37 1023.69 1023.98 1024.23 1024.43 1024.57 1024.67 1024.74 1024.80 1024.86 1024.95 1025.05 1025.16
1016.12 1017.32 1018.52 1019.55 1020.28 1020.62 1020.55 1020.11 1019.41 1018.58 1017.77 1017.09 1016.61 1016.36 1016.29 1016.35 1016.46 1016.57 1016.64 1016.69 1016.73 1016.84 1017.04 1017.37 1017.85 1018.43 1019.08 1019.74 1020.37 1020.92 1021.39 1021.78 1022.12 1022.44 1022.75 1023.07 1023.40 1023.71 1024.00 1024.25 1024.45 1024.60 1024.72 1024.82 1024.92 1025.03 1025.16 1025.31 1025.46
1016.83 1018.01 1019.10 1019.96 1020.48 1020.60 1020.32 1019.72 1018.91 1018.04 1017.25 1016.63 1016.23 1016.06 1016.08 1016.21 1016.37 1016.53 1016.64 1016.72 1016.80 1016.94 1017.17 1017.52 1017.99 1018.56 1019.17 1019.78 1020.35 1020.85 1021.28 1021.65 1021.99 1022.31 1022.64 1022.97 1023.31 1023.64 1023.94 1024.19 1024.40 1024.57 1024.72 1024.86 1025.01 1025.17 1025.35 1025.54 1025.74
1017.54 1018.63 1019.57 1020.22 1020.52 1020.43 1019.99 1019.29 1018.45 1017.62 1016.91 1016.40 1016.13 1016.06 1016.16 1016.35 1016.55 1016.72 1016.84 1016.92 1017.01 1017.16 1017.39 1017.74 1018.18 1018.70 1019.25 1019.79 1020.28 1020.72 1021.10 1021.44 1021.77 1022.10 1022.46 1022.82 1023.20 1023.55 1023.87 1024.14 1024.37 1024.57 1024.74 1024.92 1025.10 1025.31 1025.53 1025.76 1025.99
1018.15 1019.11 1019.85 1020.30 1020.39 1020.13 1019.58 1018.85 1018.05 1017.31 1016.74 1016.37 1016.23 1016.28 1016.44 1016.66 1016.86 1017.01 1017.11 1017.18 1017.26 1017.40 1017.62 1017.95 1018.35 1018.82 1019.29 1019.75 1020.17 1020.54 1020.87 1021.19 1021.52 1021.89 1022.28 1022.69 1023.11 1023.51 1023.87 1024.17 1024.42 1024.63 1024.82 1025.02 1025.23 1025.47 1025.72 1025.98 1026.24
1018.57 1019.37 1019.92 1020.17 1020.09 1019.71 1019.11 1018.40 1017.69 1017.08 1016.66 1016.45 1016.42 1016.55 1016.76 1016.97 1017.15 1017.26 1017.32 1017.36 1017.43 1017.55 1017.77 1018.07 1018.45 1018.86 1019.27 1019.66 1020.02 1020.33 1020.64 1020.96 1021.31 1021.72 1022.16 1022.64 1023.12 1023.56 1023.96 1024.28 1024.55 1024.78 1024.98 1025.19 1025.41 1025.65 1025.92 1026.20 1026.47
1018.76 1019.40 1019.77 1019.85 1019.64 1019.19 1018.59 1017.93 1017.33 1016.87 1016.59 1016.50 1016.57 1016.74 1016.95 1017.13 1017.26 1017.32 1017.34 1017.36 1017.41 1017.54 1017.76 1018.06 1018.42 1018.80 1019.18 1019.53 1019.84 1020.14 1020.44 1020.77 1021.17 1021.63 1022.14 1022.68 1023.21 1023.71 1024.13 1024.48 1024.76 1024.99 1025.19 1025.39 1025.61 1025.85 1026.12 1026.40 1026.67
1018.74 1019.22 1019.44 1019.38 1019.09 1018.61 1018.03 1017.46 1016.97 1016.63 1016.47 1016.46 1016.57 1016.74 1016.91 1017.04 1017.10 1017.11 1017.10 1017.10 1017.17 1017.32 1017.56 1017.89 1018.26 1018.65 1019.02 1019.36 1019.67 1019.97 1020.29 1020.66 1021.10 1021.62 1022.19 1022.79 1023.37 1023.90 1024.35 1024.71 1024.99 1025.21 1025.40 1025.59 1025.80 1026.03 1026.29 1026.56 1026.83
1018.57 1018.91 1019.00 1018.85 1018.50 1018.02 1017.50 1017.00 1016.61 1016.36 1016.26 1016.28 1016.39 1016.51 1016.62 1016.68 1016.68 1016.64 1016.60 1016.62 1016.71 1016.91 1017.20 1017.58 1018.00 1018.42 1018.81 1019.17 1019.51 1019.83 1020.19 1020.60 1021.09 1021.65 1022.27 1022.90 1023.52 1024.06 1024.53 1024.89 1025.17 1025.38 1025.56 1025.75 1025.95 1026.17 1026.42 1026.68 1026.93
1018.37 1018.59 1018.58 1018.36 1017.98 1017.52 1017.04 1016.62 1016.29 1016.09 1016.01 1016.01 1016.06 1016.12 1016.14 1016.11 1016.05 1015.98 1015.94 1015.97 1016.11 1016.37 1016.73 1017.17 1017.65 1018.12 1018.57 1018.97 1019.35 1019.72 1020.12 1020.57 1021.09 1021.68 1022.32 1022.97 1023.58 1024.13 1024.59 1024.95 1025.23 1025.45 1025.64 1025.82 1026.02 1026.24 1026.49 1026.73 1026.97
1018.25 1018.36 1018.27 1018.00 1017.62 1017.18 1016.74 1016.36 1016.06 1015.87 1015.77 1015.72 1015.69 1015.65 1015.58 1015.48 1015.36 1015.27 1015.23 1015.30 1015.49 1015.80 1016.23 1016.73 1017.27 1017.80 1018.31 1018.76 1019.19 1019.61 1020.04 1020.53 1021.07 1021.66 1022.29 1022.92 1023.51 1024.04 1024.49 1024.85 1025.14 1025.37 1025.58 1025.79 1026.01 1026.24 1026.48 1026.72 1026.93
1018.30 1018.32 1018.16 1017.86 1017.47 1017.05 1016.64 1016.28 1016.00 1015.78 1015.63 1015.51 1015.40 1015.26 1015.11 1014.94 1014.78 1014.67 1014.64 1014.73 1014.95 1015.31 1015.77 1016.32 1016.90 1017.49 1018.04 1018.55 1019.02 1019.48 1019.95 1020.44 1020.97 1021.54 1022.13 1022.71 1023.27 1023.77 1024.20 1024.56 1024.87 1025.14 1025.39 1025.64 1025.89 1026.15 1026.40 1026.62 1026.80
1018.52 1018.46 1018.25 1017.93 1017.55 1017.14 1016.75 1016.41 1016.11 1015.87 1015.65 1015.46 1015.27 1015.06 1014.84 1014.62 1014.43 1014.30 1014.27 1014.36 1014.59 1014.95 1015.43 1015.99 1016.59 1017.19 1017.78 1018.33 1018.84 1019.33 1019.81 1020.30 1020.80 1021.32 1021.85 1022.37 1022.86 1023.32 1023.74 1024.11 1024.44 1024.76 1025.07 1025.37 1025.67 1025.95 1026.20 1026.41 1026.56
1018.86 1018.74 1018.50 1018.17 1017.80 1017.42 1017.05 1016.71 1016.40 1016.12 1015.86 1015.60 1015.34 1015.08 1014.82 1014.57 1014.36 1014.22 1014.17 1014.25 1014.45 1014.78 1015.23 1015.76 1016.34 1016.94 1017.54 1018.11 1018.65 1019.15 1019.63 1020.10 1020.56 1021.01 1021.46 1021.91 1022.34 1022.75 1023.14 1023.52 1023.89 1024.26 1024.62 1024.98 1025.32 1025.63 1025.89 1026.08 1026.20
1019.22 1019.06 1018.81 1018.50 1018.15 1017.80 1017.45 1017.12 1016.80 1016.49 1016.19 1015.90 1015.60 1015.31 1015.03 1014.78 1014.56 1014.41 1014.34 1014.38 1014.53 1014.80 1015.17 1015.64 1016.18 1016.75 1017.34 1017.91 1018.46 1018.96 1019.43 1019.86 1020.27 1020.65 1021.01 1021.37 1021.73 1022.09 1022.46 1022.84 1023.24 1023.65 1024.06 1024.46 1024.84 1025.17 1025.43 1025.60 1025.68
1019.48 1019.31 1019.08 1018.80 1018.51 1018.21 1017.89 1017.57 1017.25 1016.92 1016.60 1016.28 1015.97 1015.68 1015.41 1015.16 1014.96 1014.80 1014.71 1014.70 1014.78 1014.96 1015.25 1015.63 1016.10 1016.62 1017.18 1017.74 1018.28 1018.77 1019.22 1019.61 1019.95 1020.25 1020.53 1020.80 1021.08 1021.39 1021.72 1022.10 1022.51 1022.93 1023.37 1023.80 1024.20 1024.53 1024.79 1024.95 1025.00
1019.54 1019.40 1019.23 1019.03 1018.81 1018.56 1018.29 1017.99 1017.67 1017.33 1016.98 1016.65 1016.35 1016.07 1015.83 1015.62 1015.44 1015.29 1015.19 1015.13 1015.14 1015.24 1015.43 1015.72 1016.10 1016.56 1017.07 1017.60 1018.12 1018.59 1019.00 1019.34 1019.61 1019.83 1020.02 1020.21 1020.41 1020.66 1020.95 1021.30 1021.70 1022.12 1022.56 1022.99 1023.38 1023.71 1023.95 1024.10 1024.15
1019.37 1019.31 1019.23 1019.14 1019.01 1018.84 1018.62 1018.33 1018.00 1017.64 1017.27 1016.93 1016.63 1016.38 1016.18 1016.02 1015.89 1015.77 1015.67 1015.60 1015.55 1015.57 1015.67 1015.87 1016.17 1016.56 1017.01 1017.50 1017.98 1018.41 1018.77 1019.05 1019.25 1019.40 1019.50 1019.60 1019.73 1019.91 1020.15 1020.45 1020.81 1021.21 1021.62 1022.02 1022.38 1022.69 1022.92 1023.07 1023.13
1019.03 1019.08 1019.13 1019.17 1019.15 1019.06 1018.87 1018.59 1018.23 1017.83 1017.43 1017.07 1016.77 1016.55 1016.40 1016.31 1016.24 1016.18 1016.11 1016.03 1015.96 1015.93 1015.96 1016.08 1016.30 1016.61 1017.00 1017.43 1017.85 1018.23 1018.53 1018.75 1018.88 1018.93 1018.96 1018.98 1019.03 1019.14 1019.31 1019.56 1019.86 1020.20 1020.55 1020.90 1021.22 1021.49 1021.71 1021.86 1021.95
1018.61 1018.80 1019.01 1019.19 1019.28 1019.25 1019.09 1018.78 1018.38 1017.92 1017.46 1017.06 1016.76 1016.56 1016.46 1016.44 1016.45 1016.46 1016.45 1016.40 1016.33 1016.27 1016.25 1016.31 1016.46 1016.70 1017.01 1017.36 1017.72 1018.03 1018.26 1018.41 1018.46 1018.44 1018.39 1018.34 1018.32 1018.35 1018.46 1018.63 1018.86 1019.12 1019.40 1019.67 1019.92 1020.16 1020.36 1020.53 1020.66
1018.25 1018.60 1018.96 1019.27 1019.46 1019.47 1019.30 1018.95 1018.47 1017.92 1017.39 1016.94 1016.62 1016.44 1016.40 1016.45 1016.55 1016.64 1016.70 1016.70 1016.65 1016.59 1016.54 1016.54 1016.62 1016.78 1017.01 1017.29 1017.56 1017.80 1017.96 1018.02 1018.01 1017.92 1017.80 1017.68 1017.60 1017.57 1017.60 1017.70 1017.84 1018.01 1018.20 1018.38 1018.57 1018.75 1018.93 1019.10 1019.27
1018.04 1018.54 1019.04 1019.46 1019.72 1019.75 1019.54 1019.12 1018.55 1017.90 1017.28 1016.77 1016.42 1016.26 1016.26 1016.38 1016.56 1016.74 1016.88 1016.93 1016.92 1016.85 1016.78 1016.73 1016.75 1016.83 1016.99 1017.18 1017.37 1017.52 1017.60 1017.61 1017.53 1017.39 1017.21 1017.04 1016.90 1016.81 1016.78 1016.80 1016.85 1016.93 1017.02 1017.11 1017.21 1017.33 1017.48 1017.65 1017.84
1018.03 1018.66 1019.28 1019.77 1020.05 1020.06 1019.80 1019.29 1018.61 1017.87 1017.16 1016.60 1016.23 1016.07 1016.11 1016.29 1016.55 1016.81 1017.00 1017.11 1017.12 1017.05 1016.96 1016.86 1016.82 1016.83 1016.90 1017.01 1017.12 1017.21 1017.23 1017.18 1017.05 1016.87 1016.66 1016.45 1016.27 1016.13 1016.03 1015.98 1015.95 1015.93 1015.92 1015.91 1015.93 1015.97 1016.06 1016.21 1016.41
1018.19 1018.92 1019.60 1020.12 1020.39 1020.36 1020.03 1019.43 1018.66 1017.83 1017.06 1016.45 1016.07 1015.93 1016.00 1016.24 1016.55 1016.85 1017.09 1017.23 1017.25 1017.18 1017.05 1016.92 1016.81 1016.76 1016.76 1016.80 1016.85 1016.87 1016.85 1016.76 1016.60 1016.39 1016.16 1015.93 1015.71 1015.53 1015.38 1015.26 1015.14 1015.04 1014.93 1014.82 1014.74 1014.70 1014.72 1014.82 1014.98
1018.44 1019.21 1019.91 1020.42 1020.65 1020.56 1020.15 1019.48 1018.65 1017.77 1016.97 1016.35 1015.98 1015.86 1015.97 1016.23 1016.58 1016.91 1017.16 1017.30 1017.31 1017.21 1017.06 1016.88 1016.72 1016.61 1016.56 1016.55 1016.56 1016.54 1016.49 1016.38 1016.21 1015.99 1015.74 1015.49 1015.25 1015.03 1014.83 1014.64 1014.45 1014.26 1014.06 1013.86 1013.68 1013.55 1013.48 1013.50 1013.60
1018.66 1019.44 1020.11 1020.57 1020.74 1020.58 1020.11 1019.40 1018.54 1017.66 1016.88 1016.30 1015.96 1015.87 1016.01 1016.30 1016.65 1016.98 1017.22 1017.33 1017.31 1017.18 1016.99 1016.77 1016.57 1016.43 1016.34 1016.29 1016.27 1016.24 1016.17 1016.05 1015.88 1015.65 1015.39 1015.12 1014.86 1014.60 1014.35 1014.10 1013.84 1013.57 1013.28 1012.99 1012.72 1012.49 1012.33 1012.26 1012.27
1018.76 1019.48 1020.09 1020.47 1020.57 1020.36 1019.86 1019.15 1018.32 1017.50 1016.79 1016.28 1016.00 1015.97 1016.13 1016.43 1016.77 1017.07 1017.27 1017.34 1017.28 1017.11 1016.87 1016.62 1016.40 1016.23 1016.12 1016.06 1016.03 1015.99 1015.91 1015.79 1015.60 1015.36 1015.09 1014.79 1014.48 1014.18 1013.88 1013.57 1013.24 1012.90 1012.55 1012.18 1011.83 1011.52 1011.26 1011.09 1011.00
1018.67 1019.31 1019.81 1020.11 1020.14 1019.89 1019.41 1018.75 1018.00 1017.29 1016.69 1016.29 1016.11 1016.13 1016.33 1016.62 1016.93 1017.18 1017.33 1017.35 1017.23 1017.02 1016.76 1016.49 1016.25 1016.07 1015.96 1015.89 1015.84 1015.79 1015.70 1015.55 1015.34 1015.07 1014.76 1014.42 1014.07 1013.71 1013.35 1012.99 1012.61 1012.21 1011.79 1011.37 1010.95 1010.57 1010.23 1009.97 1009.78
Thickness
5736 5735 5733 5723 5699 5677 5679 5690 5698 5701 5705 5712 5714 5709 5702 5700 5696 5701 5720 5720 5720 5717 5711 5708 5703 5698 5694 5691 5687 5684 5682 5679 5676 5674 5672 5670 5668 5666 5665 5664 5663 5663 5662 5661 5661 5660 5661 5661 5661
5736 5735 5726 5709 5684 5669 5677 5692 5697 5703 5711 5714 5714 5713 5710 5710 5718 5721 5718 5718 5718 5715 5710 5707 5703 5697 5693 5689 5685 5682 5679 5676 5673 5671 5668 5666 5664 5662 5661 5659 5658 5657 5656 5655 5655 5654 5655 5655 5655
5736 5733 5715 5695 5680 5674 5686 5700 5703 5709 5713 5713 5712 5713 5713 5716 5721 5722 5722 5718 5716 5713 5708 5705 5701 5696 5691 5687 5683 5680 5676 5673 5671 5668 5665 5663 5660 5659 5657 5655 5654 5652 5651 5650 5649 5649 5649 5649 5649
5732 5721 5706 5690 5687 5689 5695 5704 5706 5707 5712 5713 5711 5709 5714 5722 5723 5722 5720 5717 5714 5711 5706 5703 5699 5694 5690 5685 5681 5677 5674 5671 5668 5665 5662 5659 5657 5655 5653 5651 5649 5648 5646 5645 5645 5644 5644 5644 5643
5726 5710 5694 5682 5687 5695 5701 5705 5707 5706 5708 5710 5708 5706 5709 5722 5720 5719 5717 5714 5711 5708 5704 5701 5697 5692 5688 5684 5679 5675 5672 5668 5665 5662 5659 5657 5654 5652 5649 5647 5645 5644 5642 5641 5640 5639 5639 5638 5638
5711 5700 5681 5676 5685 5695 5701 5707 5707 5706 5707 5709 5707 5705 5711 5720 5718 5715 5713 5710 5707 5704 5701 5698 5695 5690 5686 5682 5678 5673 5670 5666 5663 5660 5657 5654 5651 5649 5646 5644 5642 5640 5638 5637 5635 5634 5633 5633 5633
5705 5692 5683 5685 5684 5690 5704 5711 5708 5708 5707 5710 5710 5704 5713 5719 5716 5712 5709 5706 5703 5700 5697 5695 5693 5689 5684 5680 5676 5672 5668 5664 5661 5657 5654 5651 5649 5646 5643 5640 5638 5636 5634 5632 5631 5630 5628 5628 5627
5708 5693 5688 5682 5684 5690 5706 5711 5714 5711 5710 5715 5711 5705 5708 5716 5709 5706 5703 5700 5698 5696 5694 5692 5690 5687 5683 5679 5674 5670 5665 5662 5658 5655 5652 5649 5646 5643 5640 5637 5635 5633 5631 5629 5627 5625 5624 5623 5622
5710 5687 5678 5683 5686 5694 5706 5707 5713 5717 5713 5713 5712 5713 5715 5706 5703 5700 5696 5694 5692 5692 5691 5689 5687 5685 5681 5677 5672 5668 5664 5660 5656 5652 5649 5645 5642 5639 5637 5634 5631 5629 5627 5625 5623 5621 5620 5618 5617
5698 5680 5685 5694 5696 5699 5704 5704 5707 5708 5706 5708 5711 5713 5707 5702 5699 5698 5696 5695 5693 5692 5690 5687 5685 5682 5679 5674 5670 5666 5662 5658 5654 5650 5646 5643 5639 5636 5632 5630 5627 5625 5623 5621 5619 5617 5616 5614 5612
5698 5688 5694 5699 5702 5702 5700 5702 5706 5704 5699 5705 5708 5713 5707 5699 5697 5698 5698 5698 5699 5695 5689 5686 5683 5679 5676 5672 5668 5663 5659 5655 5651 5647 5643 5639 5635 5631 5628 5625 5622 5620 5618 5616 5614 5612 5611 5609 5607
5694 5694 5696 5699 5704 5702 5700 5702 5702 5701 5707 5716 5714 5713 5706 5699 5698 5700 5701 5699 5695 5691 5689 5685 5680 5676 5672 5669 5664 5660 5656 5651 5647 5643 5639 5635 5630 5627 5623 5621 5618 5615 5613 5610 5608 5606 5604 5602 5601
5690 5691 5696 5698 5697 5697 5696 5695 5697 5703 5711 5710 5710 5709 5704 5701 5701 5703 5702 5698 5692 5689 5686 5682 5678 5673 5669 5665 5660 5656 5652 5648 5644 5639 5635 5631 5626 5622 5619 5616 5613 5610 5607 5605 5602 5600 5598 5596 5594
5688 5688 5688 5690 5693 5695 5694 5693 5693 5704 5707 5706 5705 5703 5702 5700 5702 5699 5697 5696 5693 5690 5685 5680 5675 5671 5666 5661 5657 5653 5648 5644 5640 5635 5632 5627 5623 5618 5614 5611 5608 5605 5602 5600 5597 5595 5592 5590 5588
5683 5680 5682 5690 5693 5695 5692 5687 5693 5702 5701 5699 5698 5697 5699 5700 5700 5699 5700 5698 5695 5690 5683 5678 5672 5667 5662 5658 5654 5649 5645 5640 5635 5631 5627 5623 5619 5615 5610 5606 5603 5600 5597 5595 5591 5588 5586 5584 5582
5677 5669 5669 5683 5686 5689 5686 5676 5693 5695 5693 5691 5690 5690 5692 5696 5697 5698 5698 5696 5693 5687 5681 5676 5670 5664 5659 5655 5650 5645 5640 5636 5631 5627 5622 5619 5615 5611 5606 5603 5600 5596 5592 5589 5586 5583 5579 5577 5575
5661 5657 5661 5669 5680 5681 5679 5674 5686 5688 5686 5685 5683 5683 5686 5691 5694 5694 5694 5693 5689 5684 5678 5672 5668 5663 5656 5650 5645 5640 5635 5631 5627 5622 5618 5614 5610 5606 5602 5599 5596 5591 5587 5583 5580 5577 5573 5572 5570
5657 5657 5657 5657 5670 5671 5668 5668 5677 5680 5680 5678 5677 5678 5680 5683 5684 5686 5688 5687 5684 5679 5674 5669 5664 5658 5652 5645 5639 5634 5629 5626 5622 5618 5614 5610 5605 5601 5598 5595 5591 5586 5581 5577 5574 5572 5569 5566 5564
5659 5655 5649 5653 5664 5664 5662 5663 5670 5674 5676 5675 5673 5672 5672 5675 5677 5678 5678 5676 5674 5671 5667 5663 5658 5653 5647 5640 5634 5628 5625 5621 5617 5613 5610 5606 5602 5598 5594 5591 5587 5581 5577 5575 5571 5565 5561 5558 5553
5652 5648 5646 5651 5660 5659 5656 5659 5668 5673 5672 5670 5669 5666 5665 5668 5672 5672 5669 5666 5664 5662 5659 5656 5652 5648 5643 5638 5632 5625 5621 5617 5613 5609 5606 5602 5599 5595 5590 5586 5583 5578 5573 5569 5565 5559 5554 5551 5545
5648 5645 5648 5650 5652 5653 5653 5660 5666 5670 5669 5668 5664 5661 5659 5660 5659 5660 5660 5658 5655 5653 5650 5650 5646 5642 5637 5632 5625 5619 5614 5610 5606 5604 5603 5600 5595 5591 5587 5584 5579 5574 5569 5565 5561 5555 5548 5545 5540
5643 5653 5649 5648 5642 5636 5642 5638 5655 5658 5661 5663 5660 5655 5653 5652 5652 5652 5651 5649 5647 5644 5643 5641 5639 5636 5631 5626 5620 5614 5609 5606 5606 5603 5599 5595 5591 5587 5583 5579 5575 5570 5565 5561 5558 5552 5546 5539 5535
5650 5654 5648 5644 5638 5631 5632 5630 5641 5651 5653 5655 5655 5653 5650 5647 5645 5644 5642 5641 5638 5636 5634 5632 5631 5628 5624 5619 5615 5609 5606 5604 5602 5597 5593 5590 5587 5584 5580 5575 5570 5566 5561 5558 5553 5547 5541 5535 5531
5651 5643 5634 5625 5622 5626 5633 5625 5635 5641 5649 5651 5650 5648 5645 5642 5639 5637 5635 5633 5631 5628 5626 5624 5622 5619 5616 5612 5607 5603 5600 5597 5593 5590 5587 5584 5581 5578 5574 5569 5565 5561 5557 5552 5548 5542 5536 5531 5525
5644 5631 5620 5625 5618 5623 5628 5621 5630 5648 5648 5646 5645 5643 5640 5636 5632 5629 5627 5624 5622 5619 5617 5615 5613 5611 5608 5604 5600 5597 5593 5589 5586 5584 5580 5577 5574 5571 5568 5563 5559 5554 5550 5546 5541 5535 5529 5524 5518
5636 5630 5617 5615 5612 5612 5619 5617 5633 5644 5640 5641 5641 5637 5634 5630 5625 5623 5620 5616 5612 5610 5608 5606 5604 5602 5600 5597 5594 5590 5586 5582 5579 5576 5573 5569 5567 5565 5561 5556 5551 5547 5542 5537 5532 5526 5521 5516 5511
5628 5622 5621 5607 5604 5602 5608 5616 5630 5639 5636 5634 5632 5629 5626 5622 5620 5616 5612 5608 5604 5602 5599 5597 5595 5594 5592 5589 5585 5581 5577 5573 5570 5567 5563 5560 5557 5554 5551 5546 5541 5537 5532 5526 5521 5516 5511 5506 5501
5630 5617 5605 5601 5600 5599 5604 5609 5617 5632 5630 5627 5624 5622 5619 5616 5611 5608 5602 5599 5596 5593 5590 5588 5586 5584 5581 5578 5575 5571 5567 5563 5560 5556 5552 5548 5545 5541 5537 5533 5528 5523 5518 5513 5507 5503 5499 5493 5489
5617 5614 5606 5593 5592 5589 5591 5609 5625 5627 5625 5620 5618 5615 5611 5608 5602 5597 5593 5589 5586 5583 5580 5578 5576 5573 5570 5566 5562 5559 5555 5551 5547 5542 5539 5535 5531 5527 5522 5517 5512 5507 5502 5497 5491 5487 5482 5478 5475
5617 5612 5601 5597 5592 5580 5579 5603 5628 5622 5618 5615 5611 5607 5602 5598 5592 5587 5583 5580 5576 5573 5570 5567 5564 5561 5557 5553 5549 5545 5541 5537 5533 5529 5525 5521 5516 5511 5506 5500 5495 5489 5484 5478 5472 5469 5465 5460 5457